This demonstration page uses our WeatherBlox Daily Observations layout. Learn more.

Left ArrowRight Arrow

Hourly Observations for November 24, 2015

Temp ( °F °C ) Dew Point ( °F °C ) Humidity (%) Winds ( mph kmh ) Pressure ( in mb ) Visibility ( mi km ) Precip ( " mm )
12:53 am 00:53 Clear 27 -2.8 24 -4.4 89 89 Calm 30.26 1025 10 16 0.00 0.00
1:53 am 01:53 Clear 26 -3.3 23 -5 88 88 Calm 30.27 1025 10 16 0.00 0.00
2:53 am 02:53 Clear 26 -3.3 24 -4.4 92 92 Calm 30.27 1025 10 16 0.00 0.00
3:53 am 03:53 Clear 26 -3.3 23 -5 88 88 Calm 30.29 1026 10 16 0.00 0.00
4:53 am 04:53 Clear 24 -4.4 22 -5.6 91 91 Calm 30.31 1026 10 16 0.00 0.00
5:53 am 05:53 Clear 24 -4.4 22 -5.6 91 91 Calm 30.32 1027 10 16 0.00 0.00
6:53 am 06:53 Clear 24 -4.4 23 -5 96 96 Calm 30.35 1028 10 16 0.00 0.00
7:53 am 07:53 Sunny 26 -3.3 24 -4.4 92 92 Calm 30.37 1029 10 16 0.00 0.00
8:53 am 08:53 Sunny 32 0 30 -1.1 92 92 Calm 30.38 1029 10 16 0.00 0.00
9:53 am 09:53 Sunny 39 3.9 31 -0.6 73 73 Calm 30.40 1030 10 16 0.00 0.00
10:53 am 10:53 Sunny 43 6.1 32 0 65 65 Calm 30.42 1030 10 16 0.00 0.00
11:53 am 11:53 Sunny 47 8.3 32 0 56 56 Calm 30.40 1030 10 16 0.00 0.00
12:53 pm 12:53 Sunny 50 10 33 0.6 52 52 Calm 30.38 1029 10 16 0.00 0.00
1:53 pm 13:53 Sunny 52 11.1 33 0.6 49 49 VRB 3 6 30.37 1028 10 16 0.00 0.00
2:53 pm 14:53 Sunny 53 11.7 32 0 45 45 Calm 30.36 1028 10 16 0.00 0.00
3:53 pm 15:53 Sunny 53 11.7 34 1.1 48 48 ENE 5 7 30.35 1028 10 16 0.00 0.00
4:53 pm 16:53 Sunny 49 9.4 33 0.6 55 55 Calm 30.36 1028 10 16 0.00 0.00
5:53 pm 17:53 Clear 41 5 32 0 70 70 Calm 30.37 1029 10 16 0.00 0.00
6:53 pm 18:53 Clear 37 2.8 31 -0.6 79 79 Calm 30.38 1029 10 16 0.00 0.00
7:53 pm 19:53 Clear 35 1.7 31 -0.6 85 85 Calm 30.39 1029 10 16 0.00 0.00
8:53 pm 20:53 Clear 34 1.1 30 -1.1 85 85 Calm 30.39 1029 10 16 0.00 0.00
9:53 pm 21:53 Clear 32 0 29 -1.7 88 88 Calm 30.39 1029 10 16 0.00 0.00
10:53 pm 22:53 Clear 31 -0.6 28 -2.2 89 89 Calm 30.40 1029 10 16 0.00 0.00
11:53 pm 23:53 Clear 30 -1.1 28 -2.2 92 92 Calm 30.40 1029 10 16 0.00 0.00

Powered by AerisWeather